Home   Weather   Horn   Past weeks

Flag for Austria Past Weather in Horn, Lower Austria, Austria — Yesterday and Last 2 Weeks

Now
74 °F

Mild.


Feels Like: 77 °F
Forecast: 55 / 75 °F
Wind: 3 mph from Southwest

Location: Retz

Current Time: Sep 28, 2016 at 3:41:36 PM

Latest Report: Sep 28, 2016 at 3:00 PM


Visibility: N/A

Pressure: 30.24 "Hg

Humidity: 44%

Dew Point: 51 °F

Location of HornLocation

Past Weather in Horn — Graph

°F

Horn Temperature Yesterday

Maximum temperature yesterday: 70 °F (at 4:00 PM)
Minimum temperature yesterday: 51 °F (at 7:00 AM)
Average temperature yesterday: 59 °F

High & Low Weather Summary for the Past Weeks

 TemperatureHumidityPressure
High84 °F (Sep 13, 3:00 PM)94% (Sep 17, 7:00 AM)30.37 "Hg (Sep 17, 7:00 AM)
Low45 °F (Sep 23, 6:00 AM)36% (Sep 22, 3:00 PM)29.74 "Hg (Sep 17, 3:00 AM)
Average62 °F67%30.05 "Hg
* Reported Sep 13 2:00 PM — Sep 28 2:00 PM, Horn, Weather by CustomWeather, © 2016

Note: Actual official high and low records may vary slightly from our data, if they occured in-between our weather recording intervals... More about our weather records

Advertising

Horn Weather History for the Previous 24 Hours

Scroll right to see more
 ConditionsComfort  
Time TempWeatherWind HumidityBarometerVisibility
2:00 PM
Wed, Sep 28
74 °FMild.6 mph43%30.26 "HgN/A
1:00 PM72 °FMild.5 mph47%30.29 "HgN/A
12:00 PM69 °FMild.2 mph55%30.32 "HgN/A
11:00 AM65 °FMild.2 mph61%30.35 "HgN/A
10:00 AM60 °FCool.1 mph70%30.37 "HgN/A
9:00 AM56 °FCool.No wind76%30.37 "HgN/A
8:00 AM51 °FCool.1 mph85%30.36 "HgN/A
7:00 AM51 °FCool.1 mph86%30.36 "HgN/A
6:00 AM54 °FCool.1 mph78%30.36 "HgN/A
5:00 AM53 °FCool.1 mph80%30.36 "HgN/A
4:00 AM54 °FCool.1 mph79%30.35 "HgN/A
3:00 AM55 °FCool.1 mph76%30.36 "HgN/A
2:00 AM56 °FCool.1 mph74%30.35 "HgN/A
1:00 AM58 °FCool.3 mph68%30.34 "HgN/A
12:00 AM59 °FCool.6 mph72%30.34 "HgN/A
5:00 PM
Tue, Sep 27
70 °FMild.1 mph40%30.26 "HgN/A
4:00 PM70 °FMild.2 mph41%30.26 "HgN/A
3:00 PM70 °FMild.3 mph43%30.27 "HgN/A
Weather by CustomWeather, © 2016

See weather overviewHow to use our weather pages